Location: Ústí nad Labem
(50.6611°N, 14.0531°E)
Time: 05:05:26
(UTC+02:00)

Vanguard 1 Rocket - All Passes

Search period start: 22 April 2024 00:00
Search period end: 02 May 2024 00:00
Orbit: 652 x 4219 km, 34.3° (Epoch: 21 April)

Date Brightness Start Highest point End Pass type
(mag) Time Alt. Az. Time Alt. Az. Time Alt. Az.
22 Apr - 00:36:30 10° WSW 00:42:39 18° SSW 00:51:14 10° SSE visible
22 Apr - 21:01:16 10° SW 21:05:42 21° S 21:12:05 10° SE visible
22 Apr - 23:24:45 10° SW 23:30:26 20° SSW 23:38:45 10° SSE visible
23 Apr - 19:51:11 10° SSW 19:54:27 16° SSE 19:58:37 10° SE daylight
23 Apr - 22:13:39 10° SW 22:18:34 20° S 22:25:44 10° SE visible
24 Apr - 00:39:56 10° SW 00:43:54 13° SSW 00:48:46 10° S visible
24 Apr - 18:42:17 10° S 18:43:23 11° SSE 18:44:33 10° SE daylight
24 Apr - 21:02:58 10° SW 21:07:01 19° S 21:12:36 10° SE visible
24 Apr - 23:27:17 10° SW 23:31:44 15° SSW 23:37:40 10° SSE visible
25 Apr - 19:52:38 10° SSW 19:55:44 16° S 19:59:34 10° SE daylight
25 Apr - 22:15:47 10° SW 22:19:55 17° S 22:25:28 10° SSE visible
26 Apr - 18:42:58 10° S 18:44:35 12° SSE 18:46:19 10° SE daylight
26 Apr - 21:04:50 10° SW 21:08:21 16° S 21:12:55 10° SE visible
26 Apr - 23:31:24 10° SSW 23:33:05 11° SSW 23:34:55 10° S visible
27 Apr - 19:54:15 10° SSW 19:57:01 15° S 20:00:20 10° SE daylight
27 Apr - 22:18:31 10° SW 22:21:15 12° SSW 22:24:32 10° S visible
28 Apr - 18:44:06 10° SSW 18:45:50 12° S 18:47:41 10° SSE daylight
28 Apr - 21:07:03 10° SW 21:09:41 13° S 21:12:50 10° SSE visible
29 Apr - 19:56:06 10° SSW 19:58:19 13° S 20:00:51 10° SSE daylight
30 Apr - 18:45:29 10° SSW 18:47:05 12° S 18:48:46 10° SSE daylight
01 May - 19:58:35 10° SSW 19:59:36 11° S 20:00:41 10° S daylight
